Вернуться в каталог

CZ-4 DEB

АктивенSSO
NORAD 29039·DEBRIS·🇨🇳 China

Запущен Oct 14, 1999 с Taiyuan Satellite Launch Center

Loading…

Ближайшие Пролёты (ближайшие 24 часа)

TLE

СвежийSource: Space-Track

Эпоха: Sep 14, 2026, 02:35 UTC

1 29039U 99057NJ  26257.10810421  .00002919  00000-0  42143-3 0  9990
2 29039  98.3314 315.2899 0046294  51.8827 338.5122 14.76327465260621

Отслеживайте CZ-4 DEB в реальном времени с AllMySat

Download on the App Store